Regional Weather Roundup
Issued by NWS Sterling, VA

Home | Current Version | Previous Version | Graphics & Text | Print | Product List | Glossary On
Versions: 1 2 3 4 5 6 7 8 9 10 11 12 13 14 15 16 17 18 19 20 21 22 23 24 25 26 27
000
ASUS41 KLWX 170410
RWRLWX

REGIONAL WEATHER ROUNDUP
NATIONAL WEATHER SERVICE BALTIMORE MD/WASHINGTON DC
1200 AM EDT THU APR 17 2014

Note: "FAIR" indicates few or no clouds below 12,000 feet
with no significant weather and/or obstructions to visibility.
 TC=TEMPERATURE CELSIUS

 * =Non NWS site. Station does not report precipitation (e.g. rain,
    snow, etc.), thunder, or fog.

DCZ001-MDZ009-015-VAZ040>042-051-053>054-170500-
WASHINGTON METRO

CITY           SKY/WX    TMP DP  RH WIND       PRES   REMARKS
WASHINGTON NAT CLEAR     43  24  47 NE7       30.55R
DULLES         CLEAR     38  20  48 E3        30.53R
ANDREWS AFB    CLEAR     36  23  59 NE6       30.53R
FT BELVOIR     CLEAR     34  24  68 CALM      30.55R
QUANTICO       CLEAR     43  26  51 E7        30.55R
COLLEGE PARK*  CLEAR     36  28  75 CALM      30.54S
LEESBURG*      CLEAR     34  27  75 CALM      30.55R
MANASSAS*      CLEAR     36  27  69 CALM      30.54R
GAITHERSBURG*  CLEAR     37  18  44 E3        30.56R

$$

MDZ006>007-011-014-170500-
BALTIMORE METRO

CITY           SKY/WX    TMP DP  RH WIND       PRES   REMARKS
BWI AIRPORT    CLEAR     36  24  62 CALM      30.54R
MD SCIENCE CTR   N/A     44  21  40 MISG      30.54R
MARTIN STATE   CLEAR     39  28  65 CALM      30.56R
ANNAPOLIS      CLEAR     41  30  65 CALM      30.54R
FORT MEADE*    CLEAR     32  28  86 CALM      30.57R

$$

MDZ012-015-019>023-170500-
MARYLAND EASTERN SHORE

CITY           SKY/WX    TMP DP  RH WIND       PRES   REMARKS
OCEAN CITY     CLEAR     42  29  59 MISG      30.54R
SALISBURY      CLEAR     36  29  75 CALM      30.54R
BAY BRIDGE AP* CLEAR     43  23  45 E7        30.55R
CAMBRIDGE*     CLEAR     37  30  75 E5        30.54R
EASTON*        CLEAR     39  31  73 SE3       30.58R

$$

MDZ017>025-170500-
SOUTHERN MARYLAND

CITY           SKY/WX    TMP DP  RH WIND       PRES   REMARKS
PATUXENT RIVER CLEAR     40  26  57 NE8       30.53R
ST INIGOES     CLEAR     35  29  78 N3        30.53R
LEONARDTOWN*   CLEAR     34  28  80 CALM      30.55R

$$

MDZ003>005-170500-
NORTH CENTRAL MARYLAND

CITY           SKY/WX    TMP DP  RH WIND       PRES   REMARKS
FREDERICK*     CLEAR     32  32 100 CALM      30.57R
HAGERSTOWN APT CLEAR     37  17  44 E5        30.51R
WESTMINSTER*   CLEAR     36  19  51 CALM      30.52R

$$

MDZ501>502-170500-
WESTERN MARYLAND

CITY           SKY/WX    TMP DP  RH WIND       PRES   REMARKS
OAKLAND*       CLEAR     30   7  37 SE18      30.36S WCI  18
CUMBERLAND*    CLEAR     39  18  41 CALM      30.52S

$$

VAZ025>031-170500-
SHENANDOAH VALLEY

CITY           SKY/WX    TMP DP  RH WIND       PRES   REMARKS
WINCHESTER*    CLEAR     34  23  64 CALM      30.51R
STAUNTON*      CLEAR     32  24  72 CALM      30.49S

$$

WVZ021-048>050-054>055-170500-
EASTERN WEST VIRGINIA PANHANDLE

CITY           SKY/WX    TMP DP  RH WIND       PRES   REMARKS
MARTINSBURG    CLEAR     38  18  44 CALM      30.52R
PETERSBURG*    PTCLDY    37  32  81 CALM      30.49R

$$

VAZ036>039-050-170500-
CENTRAL FOOTHILLS

CITY           SKY/WX    TMP DP  RH WIND       PRES   REMARKS
CHARLOTTESVILL CLEAR     36  20  52 N5        30.51R
CULPEPER*      CLEAR     34  25  69 CALM      30.54R

$$

VAZ055>057-170500-
NORTH AND CENTRAL PIEDMONT

CITY           SKY/WX    TMP DP  RH WIND       PRES   REMARKS
FREDERICKSBRG* CLEAR     37  30  75 CALM      30.53S
STAFFORD*      CLEAR     33  28  83 CALM      30.58R

$$

NCZ024-NYZ072-PAZ021-071-VAZ022-071-170500-
OTHER REGIONAL OBSERVATIONS

CITY           SKY/WX    TMP DP  RH WIND       PRES   REMARKS
NEW YORK CITY  CLEAR     40  13  33 NE8       30.59R
PHILADELPHIA   CLEAR     42  16  34 NE9       30.57R
PITTSBURGH     CLOUDY    38  17  42 E9        30.38F
ROANOKE        CLEAR     41  18  39 SE3       30.48R
RICHMOND       CLEAR     39  24  55 NE6       30.51S
RALEIGH        CLEAR     43  27  53 E10       30.46R

$$

ANZ530>537-170500-
MARINE OBSERVATIONS

STATION/POSITION TIME  TEMP    WIND        PRES
                       AIR SEA DIR/SP/G
                 (UTC) (F)     (DEG/KT/KT) (MB)
THOMAS PT LIGHT  0400   45 52   80/ 12/ 13 1034.7R
BALT KEY BRIDGE  0400   43      20/  7/  8 1034.4R
COVE POINT       0400   44      60/  9/ 10 1033.7R
LEWISETTA        0400   45 53   50/  8/ 11 1033.3R
SOLOMONS ISLAND  0400      53                N/A
PINEY POINT      0400           60/  5/  7   N/A

$$




USA.gov is the U.S. government's official web portal to all federal, state and local government web resources and services.